Time,TemperatureF,DewpointF,PressureIn,WindDirection,WindDirectionDegrees,WindSpeedMPH,WindSpeedGustMPH,Humidity,HourlyPrecipIn,Conditions,Clouds,dailyrainin,SoftwareType,DateUTC
2013-08-09 00:01:00,50.0,48.0,30.50,West,270,0.0,0.0,94,-99.99,,,-99.99,,2013-08-09 06:01:00,
2013-08-09 00:06:00,50.0,48.0,30.50,West,270,0.0,0.0,95,-99.99,,,-99.99,,2013-08-09 06:06:00,
2013-08-09 00:11:00,50.0,48.0,30.50,West,270,0.0,0.0,95,-99.99,,,-99.99,,2013-08-09 06:11:00,
2013-08-09 00:16:00,50.0,48.0,30.50,West,270,0.0,0.0,95,-99.99,,,-99.99,,2013-08-09 06:16:00,
2013-08-09 00:21:00,50.0,48.0,30.50,West,270,0.0,0.0,96,-99.99,,,-99.99,,2013-08-09 06:21:00,
2013-08-09 00:31:00,49.0,49.0,30.50,West,270,0.0,0.0,97,-99.99,,,-99.99,,2013-08-09 06:31:00,
2013-08-09 00:41:00,49.0,49.0,30.50,West,270,0.0,0.0,97,-99.99,,,-99.99,,2013-08-09 06:41:00,
2013-08-09 00:51:00,49.0,48.0,30.49,West,270,0.0,0.0,97,-99.99,,,-99.99,,2013-08-09 06:51:00,
2013-08-09 00:56:00,49.0,48.0,30.49,West,270,0.0,0.0,97,-99.99,,,-99.99,,2013-08-09 06:56:00,
2013-08-09 01:01:00,49.0,48.0,30.49,West,270,0.0,0.0,97,-99.99,,,-99.99,,2013-08-09 07:01:00,
2013-08-09 01:11:00,49.0,48.0,30.48,North,10,3.0,0.0,97,-99.99,,,-99.99,,2013-08-09 07:11:00,
2013-08-09 01:21:00,48.0,47.0,30.48,North,10,1.0,5.0,97,-99.99,,,-99.99,,2013-08-09 07:21:00,
2013-08-09 01:26:00,48.0,47.0,30.48,NNW,340,3.0,3.0,97,-99.99,,,-99.99,,2013-08-09 07:26:00,
2013-08-09 01:36:00,47.0,47.0,30.48,NW,310,6.0,6.0,97,-99.99,,,-99.99,,2013-08-09 07:36:00,
2013-08-09 01:46:00,47.0,46.0,30.48,NNW,340,5.0,7.0,97,-99.99,,,-99.99,,2013-08-09 07:46:00,
2013-08-09 01:56:00,47.0,46.0,30.48,WNW,290,5.0,7.0,98,-99.99,,,-99.99,,2013-08-09 07:56:00,
2013-08-09 02:01:00,47.0,46.0,30.48,WNW,300,6.0,8.0,98,-99.99,,,-99.99,,2013-08-09 08:01:00,
2013-08-09 02:06:00,46.0,46.0,30.48,West,280,7.0,7.0,98,-99.99,,,-99.99,,2013-08-09 08:06:00,
2013-08-09 02:16:00,46.0,46.0,30.48,WNW,290,6.0,9.0,99,-99.99,,,-99.99,,2013-08-09 08:16:00,
2013-08-09 02:26:00,46.0,46.0,30.47,WNW,290,6.0,6.0,99,-99.99,,,-99.99,,2013-08-09 08:26:00,
2013-08-09 02:31:00,46.0,46.0,30.47,NW,310,6.0,6.0,99,-99.99,,,-99.99,,2013-08-09 08:31:00,
2013-08-09 02:36:00,46.0,46.0,30.47,NW,320,3.0,7.0,99,-99.99,,,-99.99,,2013-08-09 08:36:00,
2013-08-09 02:41:00,46.0,46.0,30.47,WNW,290,5.0,6.0,98,-99.99,,,-99.99,,2013-08-09 08:41:00,
2013-08-09 02:51:00,46.0,46.0,30.47,NE,50,3.0,7.0,98,-99.99,,,-99.99,,2013-08-09 08:51:00,
2013-08-09 03:01:00,46.0,46.0,30.47,ENE,60,3.0,3.0,98,-99.99,,,-99.99,,2013-08-09 09:01:00,
2013-08-09 03:06:00,46.0,46.0,30.47,ENE,60,0.0,4.0,98,-99.99,,,-99.99,,2013-08-09 09:06:00,
2013-08-09 03:11:00,46.0,46.0,30.47,NE,40,0.0,4.0,98,-99.99,,,-99.99,,2013-08-09 09:11:00,
2013-08-09 03:21:00,46.0,46.0,30.47,North,350,6.0,0.0,98,-99.99,,,-99.99,,2013-08-09 09:21:00,
2013-08-09 03:31:00,46.0,46.0,30.47,West,260,0.0,5.0,98,-99.99,,,-99.99,,2013-08-09 09:31:00,
2013-08-09 03:36:00,46.0,46.0,30.47,West,260,0.0,0.0,99,-99.99,,,-99.99,,2013-08-09 09:36:00,
2013-08-09 03:41:00,46.0,46.0,30.47,West,260,0.0,0.0,98,-99.99,,,-99.99,,2013-08-09 09:41:00,
2013-08-09 03:46:00,46.0,46.0,30.47,West,260,0.0,0.0,98,-99.99,,,-99.99,,2013-08-09 09:46:00,
2013-08-09 03:56:00,46.0,46.0,30.47,West,260,0.0,0.0,99,-99.99,,,-99.99,,2013-08-09 09:56:00,
2013-08-09 04:06:00,46.0,46.0,30.46,West,260,0.0,0.0,99,-99.99,,,-99.99,,2013-08-09 10:06:00,
2013-08-09 04:11:00,46.0,46.0,30.46,West,260,0.0,0.0,99,-99.99,,,-99.99,,2013-08-09 10:11:00,
2013-08-09 04:21:00,46.0,46.0,30.46,West,260,0.0,0.0,99,-99.99,,,-99.99,,2013-08-09 10:21:00,
2013-08-09 04:26:00,46.0,46.0,30.45,West,260,0.0,0.0,99,-99.99,,,-99.99,,2013-08-09 10:26:00,
2013-08-09 04:36:00,46.0,46.0,30.45,West,260,0.0,0.0,99,-99.99,,,-99.99,,2013-08-09 10:36:00,
2013-08-09 04:46:00,46.0,45.0,30.45,North,10,3.0,0.0,99,-99.99,,,-99.99,,2013-08-09 10:46:00,
2013-08-09 04:56:00,45.0,45.0,30.45,North,10,0.0,3.0,99,-99.99,,,-99.99,,2013-08-09 10:56:00,
2013-08-09 05:06:00,45.0,44.0,30.45,NNW,340,5.0,5.0,99,-99.99,,,-99.99,,2013-08-09 11:06:00,
2013-08-09 05:16:00,44.0,44.0,30.46,NW,320,0.0,5.0,99,-99.99,,,-99.99,,2013-08-09 11:16:00,
2013-08-09 05:26:00,44.0,43.0,30.46,NNW,330,4.0,6.0,98,-99.99,,,-99.99,,2013-08-09 11:26:00,
2013-08-09 05:31:00,44.0,43.0,30.46,NNW,340,3.0,6.0,98,-99.99,,,-99.99,,2013-08-09 11:31:00,
2013-08-09 05:36:00,43.0,43.0,30.46,NNW,330,6.0,6.0,99,-99.99,,,-99.99,,2013-08-09 11:36:00,
2013-08-09 05:41:00,43.0,43.0,30.46,NNW,330,0.0,7.0,99,-99.99,,,-99.99,,2013-08-09 11:41:00,
2013-08-09 05:46:00,43.0,43.0,30.46,NNW,330,0.0,6.0,99,-99.99,,,-99.99,,2013-08-09 11:46:00,
2013-08-09 05:51:00,43.0,42.0,30.47,North,10,5.0,0.0,99,-99.99,,,-99.99,,2013-08-09 11:51:00,
2013-08-09 06:01:00,43.0,42.0,30.47,NW,310,0.0,7.0,100,-99.99,,,-99.99,,2013-08-09 12:01:00,
2013-08-09 06:11:00,42.0,42.0,30.47,NW,320,0.0,6.0,100,-99.99,,,-99.99,,2013-08-09 12:11:00,
2013-08-09 06:16:00,42.0,42.0,30.47,NNE,30,0.0,7.0,100,-99.99,,,-99.99,,2013-08-09 12:16:00,
2013-08-09 06:26:00,42.0,42.0,30.48,North,10,5.0,5.0,100,-99.99,,,-99.99,,2013-08-09 12:26:00,
2013-08-09 06:31:00,42.0,42.0,30.48,WNW,300,3.0,6.0,100,-99.99,,,-99.99,,2013-08-09 12:31:00,
2013-08-09 06:41:00,42.0,41.0,30.48,NNW,330,3.0,0.0,100,-99.99,,,-99.99,,2013-08-09 12:41:00,
2013-08-09 06:51:00,41.0,41.0,30.48,WNW,300,0.0,6.0,100,-99.99,,,-99.99,,2013-08-09 12:51:00,
2013-08-09 06:56:00,41.0,41.0,30.49,NW,310,5.0,5.0,100,-99.99,,,-99.99,,2013-08-09 12:56:00,
2013-08-09 07:01:00,41.0,41.0,30.49,NW,320,4.0,5.0,100,-99.99,,,-99.99,,2013-08-09 13:01:00,
2013-08-09 07:11:00,41.0,41.0,30.49,NNW,340,3.0,4.0,100,-99.99,,,-99.99,,2013-08-09 13:11:00,
2013-08-09 07:21:00,41.0,41.0,30.49,NW,320,6.0,6.0,100,-99.99,,,-99.99,,2013-08-09 13:21:00,
2013-08-09 07:31:00,41.0,41.0,30.49,North,350,5.0,8.0,100,-99.99,,,-99.99,,2013-08-09 13:31:00,
2013-08-09 07:36:00,42.0,42.0,30.49,NE,40,6.0,8.0,100,-99.99,,,-99.99,,2013-08-09 13:36:00,
2013-08-09 07:41:00,42.0,42.0,30.49,NNE,30,2.0,7.0,100,-99.99,,,-99.99,,2013-08-09 13:41:00,
2013-08-09 07:46:00,43.0,43.0,30.49,North,0,0.0,4.0,100,-99.99,,,-99.99,,2013-08-09 13:46:00,
2013-08-09 07:56:00,44.0,44.0,30.50,NW,320,0.0,6.0,100,-99.99,,,-99.99,,2013-08-09 13:56:00,
2013-08-09 08:06:00,45.0,44.0,30.50,NW,320,4.0,0.0,99,-99.99,,,-99.99,,2013-08-09 14:06:00,
2013-08-09 08:16:00,46.0,45.0,30.50,NW,310,6.0,6.0,97,-99.99,,,-99.99,,2013-08-09 14:16:00,
2013-08-09 08:21:00,46.0,45.0,30.51,NW,320,0.0,6.0,97,-99.99,,,-99.99,,2013-08-09 14:21:00,
2013-08-09 08:26:00,47.0,45.0,30.51,WNW,300,3.0,4.0,94,-99.99,,,-99.99,,2013-08-09 14:26:00,
2013-08-09 08:31:00,48.0,46.0,30.51,NW,310,5.0,5.0,94,-99.99,,,-99.99,,2013-08-09 14:31:00,
2013-08-09 08:36:00,49.0,46.0,30.51,West,280,5.0,5.0,92,-99.99,,,-99.99,,2013-08-09 14:36:00,
2013-08-09 08:46:00,50.0,47.0,30.51,NNW,330,0.0,7.0,91,-99.99,,,-99.99,,2013-08-09 14:46:00,
2013-08-09 08:51:00,51.0,48.0,30.50,North,350,3.0,5.0,89,-99.99,,,-99.99,,2013-08-09 14:51:00,
2013-08-09 09:01:00,53.0,48.0,30.50,WNW,300,0.0,2.0,84,-99.99,,,-99.99,,2013-08-09 15:01:00,
2013-08-09 09:11:00,54.0,48.0,30.50,WNW,300,0.0,0.0,79,-99.99,,,-99.99,,2013-08-09 15:11:00,
2013-08-09 09:21:00,56.0,49.0,30.50,WNW,300,0.0,0.0,75,-99.99,,,-99.99,,2013-08-09 15:21:00,
2013-08-09 09:26:00,57.0,48.0,30.50,WNW,300,0.0,0.0,74,-99.99,,,-99.99,,2013-08-09 15:26:00,
2013-08-09 09:31:00,58.0,49.0,30.50,SSE,150,0.0,2.0,71,-99.99,,,-99.99,,2013-08-09 15:31:00,
2013-08-09 09:41:00,59.0,49.0,30.50,SSE,150,0.0,0.0,69,-99.99,,,-99.99,,2013-08-09 15:41:00,
2013-08-09 09:51:00,61.0,50.0,30.50,SSE,150,0.0,4.0,68,-99.99,,,-99.99,,2013-08-09 15:51:00,
2013-08-09 09:56:00,61.0,49.0,30.50,SE,130,0.0,6.0,65,-99.99,,,-99.99,,2013-08-09 15:56:00,
2013-08-09 10:01:00,61.0,50.0,30.50,South,170,0.0,3.0,66,-99.99,,,-99.99,,2013-08-09 16:01:00,
2013-08-09 10:11:00,61.0,49.0,30.50,South,170,0.0,0.0,65,-99.99,,,-99.99,,2013-08-09 16:11:00,
2013-08-09 10:16:00,61.0,49.0,30.50,SSE,150,0.0,0.0,65,-99.99,,,-99.99,,2013-08-09 16:16:00,
2013-08-09 10:26:00,61.0,49.0,30.51,East,100,3.0,6.0,63,-99.99,,,-99.99,,2013-08-09 16:26:00,
2013-08-09 10:31:00,61.0,49.0,30.51,SSE,160,0.0,6.0,65,-99.99,,,-99.99,,2013-08-09 16:31:00,
2013-08-09 10:36:00,61.0,49.0,30.51,SE,130,0.0,6.0,64,-99.99,,,-99.99,,2013-08-09 16:36:00,
2013-08-09 10:46:00,62.0,48.0,30.50,SE,130,0.0,6.0,59,-99.99,,,-99.99,,2013-08-09 16:46:00,
2013-08-09 10:51:00,63.0,48.0,30.50,South,170,5.0,5.0,59,-99.99,,,-99.99,,2013-08-09 16:51:00,
2013-08-09 11:01:00,64.0,49.0,30.50,SE,140,8.0,9.0,58,-99.99,,,-99.99,,2013-08-09 17:01:00,
2013-08-09 11:11:00,65.0,47.0,30.50,South,170,9.0,11.0,52,-99.99,,,-99.99,,2013-08-09 17:11:00,
2013-08-09 11:16:00,66.0,50.0,30.50,SE,140,7.0,10.0,57,-99.99,,,-99.99,,2013-08-09 17:16:00,
2013-08-09 11:21:00,66.0,47.0,30.50,SE,140,4.0,10.0,51,-99.99,,,-99.99,,2013-08-09 17:21:00,
2013-08-09 11:31:00,66.0,48.0,30.50,SE,140,6.0,11.0,51,-99.99,,,-99.99,,2013-08-09 17:31:00,
2013-08-09 11:41:00,67.0,47.0,30.50,SE,140,3.0,13.0,49,-99.99,,,-99.99,,2013-08-09 17:41:00,
2013-08-09 11:51:00,68.0,48.0,30.50,SE,140,3.0,10.0,48,-99.99,,,-99.99,,2013-08-09 17:51:00,
2013-08-09 12:01:00,69.0,50.0,30.49,SSE,150,7.0,11.0,51,-99.99,,,-99.99,,2013-08-09 18:01:00,
2013-08-09 12:06:00,69.0,48.0,30.49,SSE,160,6.0,13.0,47,-99.99,,,-99.99,,2013-08-09 18:06:00,
2013-08-09 12:16:00,69.0,50.0,30.49,SSE,160,5.0,10.0,50,-99.99,,,-99.99,,2013-08-09 18:16:00,
2013-08-09 12:26:00,69.0,48.0,30.49,SE,130,0.0,7.0,48,-99.99,,,-99.99,,2013-08-09 18:26:00,
2013-08-09 12:36:00,69.0,50.0,30.48,SSE,160,10.0,10.0,50,-99.99,,,-99.99,,2013-08-09 18:36:00,
2013-08-09 12:46:00,70.0,49.0,30.48,SE,140,6.0,9.0,47,-99.99,,,-99.99,,2013-08-09 18:46:00,
2013-08-09 12:51:00,70.0,49.0,30.48,East,80,6.0,9.0,47,-99.99,,,-99.99,,2013-08-09 18:51:00,
2013-08-09 13:01:00,70.0,48.0,30.47,East,90,0.0,7.0,45,-99.99,,,-99.99,,2013-08-09 19:01:00,
2013-08-09 13:11:00,69.0,48.0,30.46,SSE,160,0.0,6.0,47,-99.99,,,-99.99,,2013-08-09 19:11:00,
2013-08-09 13:16:00,69.0,47.0,30.45,South,170,7.0,7.0,46,-99.99,,,-99.99,,2013-08-09 19:16:00,
2013-08-09 13:26:00,68.0,49.0,30.45,South,170,8.0,8.0,49,-99.99,,,-99.99,,2013-08-09 19:26:00,
2013-08-09 13:36:00,68.0,47.0,30.45,SSW,200,4.0,10.0,46,-99.99,,,-99.99,,2013-08-09 19:36:00,
2013-08-09 13:41:00,68.0,48.0,30.45,SE,140,5.0,7.0,48,-99.99,,,-99.99,,2013-08-09 19:41:00,
2013-08-09 13:46:00,69.0,50.0,30.44,SSE,150,6.0,6.0,52,-99.99,,,-99.99,,2013-08-09 19:46:00,
2013-08-09 13:56:00,69.0,51.0,30.45,SE,130,6.0,7.0,51,-99.99,,,-99.99,,2013-08-09 19:56:00,
2013-08-09 14:01:00,70.0,49.0,30.45,SSE,150,6.0,10.0,47,-99.99,,,-99.99,,2013-08-09 20:01:00,
2013-08-09 14:06:00,70.0,49.0,30.44,South,170,8.0,9.0,47,-99.99,,,-99.99,,2013-08-09 20:06:00,
2013-08-09 14:16:00,70.0,49.0,30.44,SSE,160,8.0,11.0,47,-99.99,,,-99.99,,2013-08-09 20:16:00,
2013-08-09 14:26:00,70.0,48.0,30.45,South,180,5.0,9.0,45,-99.99,,,-99.99,,2013-08-09 20:26:00,
2013-08-09 14:31:00,70.0,47.0,30.45,East,90,3.0,8.0,45,-99.99,,,-99.99,,2013-08-09 20:31:00,
2013-08-09 14:36:00,69.0,46.0,30.45,South,180,6.0,6.0,43,-99.99,,,-99.99,,2013-08-09 20:36:00,
2013-08-09 14:46:00,70.0,48.0,30.45,South,180,5.0,5.0,46,-99.99,,,-99.99,,2013-08-09 20:46:00,
2013-08-09 14:51:00,70.0,49.0,30.45,South,170,5.0,6.0,48,-99.99,,,-99.99,,2013-08-09 20:51:00,
2013-08-09 14:56:00,70.0,47.0,30.45,South,190,8.0,10.0,44,-99.99,,,-99.99,,2013-08-09 20:56:00,
2013-08-09 15:01:00,70.0,49.0,30.45,SSE,150,3.0,8.0,48,-99.99,,,-99.99,,2013-08-09 21:01:00,
2013-08-09 15:11:00,70.0,49.0,30.45,SSE,160,0.0,6.0,47,-99.99,,,-99.99,,2013-08-09 21:11:00,
2013-08-09 15:21:00,69.0,46.0,30.45,NE,50,0.0,5.0,43,-99.99,,,-99.99,,2013-08-09 21:21:00,
2013-08-09 15:26:00,69.0,46.0,30.45,West,280,8.0,8.0,44,-99.99,,,-99.99,,2013-08-09 21:26:00,
2013-08-09 15:36:00,69.0,45.0,30.45,NNW,330,8.0,9.0,42,-99.99,,,-99.99,,2013-08-09 21:36:00,
2013-08-09 15:46:00,68.0,44.0,30.45,SSW,210,4.0,9.0,41,-99.99,,,-99.99,,2013-08-09 21:46:00,
2013-08-09 15:56:00,70.0,43.0,30.44,NW,310,9.0,15.0,39,-99.99,,,-99.99,,2013-08-09 21:56:00,
2013-08-09 16:01:00,69.0,42.0,30.44,NW,320,7.0,13.0,38,-99.99,,,-99.99,,2013-08-09 22:01:00,
2013-08-09 16:11:00,68.0,42.0,30.44,NW,310,16.0,16.0,39,-99.99,,,-99.99,,2013-08-09 22:11:00,
2013-08-09 16:21:00,68.0,43.0,30.43,NNW,340,3.0,13.0,41,-99.99,,,-99.99,,2013-08-09 22:21:00,
2013-08-09 16:31:00,70.0,43.0,30.44,West,260,9.0,9.0,37,-99.99,,,-99.99,,2013-08-09 22:31:00,
2013-08-09 16:36:00,70.0,43.0,30.44,NNW,340,6.0,10.0,38,-99.99,,,-99.99,,2013-08-09 22:36:00,
2013-08-09 16:41:00,70.0,43.0,30.44,WNW,300,7.0,10.0,38,-99.99,,,-99.99,,2013-08-09 22:41:00,
2013-08-09 16:46:00,70.0,43.0,30.44,West,270,0.0,9.0,38,-99.99,,,-99.99,,2013-08-09 22:46:00,
2013-08-09 16:56:00,70.0,43.0,30.44,NW,320,0.0,7.0,39,-99.99,,,-99.99,,2013-08-09 22:56:00,
2013-08-09 17:01:00,70.0,44.0,30.45,WSW,240,3.0,6.0,40,-99.99,,,-99.99,,2013-08-09 23:01:00,
2013-08-09 17:06:00,70.0,43.0,30.45,East,90,3.0,4.0,39,-99.99,,,-99.99,,2013-08-09 23:06:00,
2013-08-09 17:11:00,70.0,46.0,30.45,SE,130,0.0,5.0,42,-99.99,,,-99.99,,2013-08-09 23:11:00,
2013-08-09 17:16:00,69.0,44.0,30.45,North,10,4.0,4.0,39,-99.99,,,-99.99,,2013-08-09 23:16:00,
2013-08-09 17:26:00,69.0,42.0,30.45,West,270,3.0,10.0,38,-99.99,,,-99.99,,2013-08-09 23:26:00,
2013-08-09 17:31:00,68.0,43.0,30.45,NNW,340,7.0,9.0,40,-99.99,,,-99.99,,2013-08-09 23:31:00,
2013-08-09 17:41:00,69.0,44.0,30.45,NNE,20,0.0,9.0,41,-99.99,,,-99.99,,2013-08-09 23:41:00,
2013-08-09 17:51:00,68.0,44.0,30.46,NW,310,2.0,10.0,42,-99.99,,,-99.99,,2013-08-09 23:51:00,
2013-08-09 17:56:00,68.0,45.0,30.46,NNW,340,8.0,8.0,44,-99.99,,,-99.99,,2013-08-09 23:56:00,
2013-08-09 18:01:00,67.0,43.0,30.47,NW,310,7.0,9.0,42,-99.99,,,-99.99,,2013-08-10 00:01:00,
2013-08-09 18:11:00,66.0,44.0,30.47,NW,310,6.0,8.0,45,-99.99,,,-99.99,,2013-08-10 00:11:00,
2013-08-09 18:16:00,65.0,44.0,30.47,NW,310,8.0,8.0,46,-99.99,,,-99.99,,2013-08-10 00:16:00,
2013-08-09 18:21:00,65.0,43.0,30.48,NNW,340,7.0,9.0,46,-99.99,,,-99.99,,2013-08-10 00:21:00,
2013-08-09 18:26:00,65.0,43.0,30.48,NNW,330,7.0,9.0,46,-99.99,,,-99.99,,2013-08-10 00:26:00,
2013-08-09 18:36:00,64.0,43.0,30.49,NNW,340,6.0,13.0,46,-99.99,,,-99.99,,2013-08-10 00:36:00,
2013-08-09 18:41:00,64.0,42.0,30.49,North,0,12.0,16.0,45,-99.99,,,-99.99,,2013-08-10 00:41:00,
2013-08-09 18:46:00,64.0,43.0,30.49,NNW,330,13.0,18.0,46,-99.99,,,-99.99,,2013-08-10 00:46:00,
2013-08-09 18:56:00,63.0,42.0,30.51,West,270,11.0,18.0,47,-99.99,,,-99.99,,2013-08-10 00:56:00,
2013-08-09 19:01:00,62.0,43.0,30.52,NNW,330,16.0,25.0,50,-99.99,,,-99.99,,2013-08-10 01:01:00,
2013-08-09 19:11:00,59.0,43.0,30.52,NNW,330,11.0,19.0,54,-99.99,,,-99.99,,2013-08-10 01:11:00,
2013-08-09 19:21:00,59.0,43.0,30.52,NW,310,12.0,18.0,56,-99.99,,,-99.99,,2013-08-10 01:21:00,
2013-08-09 19:26:00,58.0,43.0,30.52,North,10,5.0,14.0,56,-99.99,,,-99.99,,2013-08-10 01:26:00,
2013-08-09 19:36:00,58.0,43.0,30.52,NW,320,6.0,10.0,57,-99.99,,,-99.99,,2013-08-10 01:36:00,
2013-08-09 19:46:00,58.0,44.0,30.53,NNW,340,6.0,9.0,59,-99.99,,,-99.99,,2013-08-10 01:46:00,
2013-08-09 19:51:00,58.0,44.0,30.53,NNE,20,3.0,10.0,61,-99.99,,,-99.99,,2013-08-10 01:51:00,
2013-08-09 20:01:00,56.0,43.0,30.52,NE,50,0.0,6.0,62,-99.99,,,-99.99,,2013-08-10 02:01:00,
2013-08-09 20:06:00,56.0,44.0,30.52,NE,50,0.0,5.0,63,-99.99,,,-99.99,,2013-08-10 02:06:00,
2013-08-09 20:11:00,56.0,44.0,30.52,WNW,290,4.0,0.0,65,-99.99,,,-99.99,,2013-08-10 02:11:00,
2013-08-09 20:21:00,56.0,45.0,30.52,NW,310,0.0,4.0,67,-99.99,,,-99.99,,2013-08-10 02:21:00,
2013-08-09 20:31:00,55.0,44.0,30.52,NW,310,0.0,0.0,66,-99.99,,,-99.99,,2013-08-10 02:31:00,
2013-08-09 20:36:00,55.0,45.0,30.52,NW,310,0.0,0.0,68,-99.99,,,-99.99,,2013-08-10 02:36:00,
2013-08-09 20:46:00,54.0,44.0,30.52,NW,310,0.0,0.0,68,-99.99,,,-99.99,,2013-08-10 02:46:00,
2013-08-09 20:56:00,53.0,46.0,30.52,NW,310,0.0,5.0,75,-99.99,,,-99.99,,2013-08-10 02:56:00,
2013-08-09 21:06:00,53.0,45.0,30.53,WNW,290,0.0,4.0,75,-99.99,,,-99.99,,2013-08-10 03:06:00,
2013-08-09 21:16:00,52.0,46.0,30.54,NNW,340,3.0,5.0,78,-99.99,,,-99.99,,2013-08-10 03:16:00,
2013-08-09 21:21:00,52.0,46.0,30.54,WNW,300,6.0,6.0,79,-99.99,,,-99.99,,2013-08-10 03:21:00,
2013-08-09 21:31:00,52.0,46.0,30.54,NW,320,6.0,7.0,80,-99.99,,,-99.99,,2013-08-10 03:31:00,
2013-08-09 21:41:00,52.0,45.0,30.55,WNW,300,7.0,7.0,77,-99.99,,,-99.99,,2013-08-10 03:41:00,
2013-08-09 21:51:00,52.0,45.0,30.55,NNE,20,6.0,8.0,79,-99.99,,,-99.99,,2013-08-10 03:51:00,
2013-08-09 21:56:00,52.0,45.0,30.55,NW,310,6.0,6.0,77,-99.99,,,-99.99,,2013-08-10 03:56:00,
2013-08-09 22:01:00,52.0,45.0,30.56,WNW,290,0.0,7.0,77,-99.99,,,-99.99,,2013-08-10 04:01:00,
2013-08-09 22:06:00,52.0,45.0,30.56,WNW,290,0.0,6.0,77,-99.99,,,-99.99,,2013-08-10 04:06:00,
2013-08-09 22:11:00,52.0,45.0,30.55,NW,320,0.0,0.0,78,-99.99,,,-99.99,,2013-08-10 04:11:00,
2013-08-09 22:16:00,52.0,45.0,30.55,NW,320,0.0,5.0,79,-99.99,,,-99.99,,2013-08-10 04:16:00,
2013-08-09 22:26:00,52.0,46.0,30.55,NNE,20,4.0,0.0,80,-99.99,,,-99.99,,2013-08-10 04:26:00,
2013-08-09 22:36:00,51.0,46.0,30.56,WSW,240,0.0,4.0,81,-99.99,,,-99.99,,2013-08-10 04:36:00,
2013-08-09 22:41:00,51.0,46.0,30.57,WSW,240,0.0,3.0,82,-99.99,,,-99.99,,2013-08-10 04:41:00,
2013-08-09 22:51:00,51.0,46.0,30.56,East,80,0.0,6.0,84,-99.99,,,-99.99,,2013-08-10 04:51:00,
2013-08-09 22:56:00,51.0,47.0,30.56,West,270,5.0,5.0,86,-99.99,,,-99.99,,2013-08-10 04:56:00,
2013-08-09 23:06:00,51.0,46.0,30.56,West,270,5.0,5.0,85,-99.99,,,-99.99,,2013-08-10 05:06:00,
2013-08-09 23:11:00,51.0,46.0,30.56,WNW,290,5.0,5.0,85,-99.99,,,-99.99,,2013-08-10 05:11:00,
2013-08-09 23:16:00,51.0,47.0,30.57,NE,50,4.0,6.0,86,-99.99,,,-99.99,,2013-08-10 05:16:00,
2013-08-09 23:26:00,51.0,46.0,30.55,East,80,9.0,9.0,83,-99.99,,,-99.99,,2013-08-10 05:26:00,
2013-08-09 23:36:00,51.0,46.0,30.56,West,280,7.0,8.0,85,-99.99,,,-99.99,,2013-08-10 05:36:00,
2013-08-09 23:46:00,50.0,46.0,30.55,WNW,290,0.0,9.0,86,-99.99,,,-99.99,,2013-08-10 05:46:00,
2013-08-09 23:51:00,51.0,47.0,30.56,WNW,290,0.0,0.0,87,-99.99,,,-99.99,,2013-08-10 05:51:00,
2013-08-09 23:56:00,51.0,47.0,30.56,NNE,20,3.0,0.0,86,-99.99,,,-99.99,,2013-08-10 05:56:00,